TimeEST,TemperatureF,Dew PointF,Humidity,Sea Level PressureIn,VisibilityMPH,Wind Direction,Wind SpeedMPH,Gust SpeedMPH,PrecipitationIn,Events,Conditions,WindDirDegrees,DateUTC
12:15 AM,48.4,45.5,90,29.27,10.0,SSE,12.7,-,N/A,Rain,Rain,160,2013-01-31 05:15:00
12:35 AM,48.6,45.9,90,29.25,10.0,South,5.8,-,N/A,Rain,Rain,180,2013-01-31 05:35:00
12:55 AM,46.9,44.4,91,29.23,10.0,South,3.5,-,N/A,Rain,Light Rain,180,2013-01-31 05:55:00
1:15 AM,46.9,44.6,92,29.20,7.0,South,4.6,-,N/A,Rain,Light Rain,180,2013-01-31 06:15:00
1:35 AM,46.8,44.6,92,29.20,5.0,SSW,4.6,-,N/A,Rain,Light Rain,200,2013-01-31 06:35:00
1:55 AM,46.8,44.6,92,29.17,7.0,SSE,8.1,-,N/A,Rain,Rain,150,2013-01-31 06:55:00
2:15 AM,47.3,45.0,92,29.14,10.0,SSE,10.4,-,N/A,,Drizzle,150,2013-01-31 07:15:00
2:35 AM,48.2,45.9,92,29.12,10.0,SSE,11.5,-,N/A,,Drizzle,160,2013-01-31 07:35:00
2:55 AM,48.4,45.7,90,29.10,10.0,South,10.4,-,N/A,Rain,Light Rain,170,2013-01-31 07:55:00
3:15 AM,48.6,45.9,90,29.06,10.0,South,6.9,-,N/A,Rain,Light Rain,180,2013-01-31 08:15:00
3:35 AM,47.5,44.8,90,29.04,10.0,SSW,6.9,-,N/A,Rain,Light Rain,200,2013-01-31 08:35:00
3:55 AM,48.4,45.7,90,29.02,10.0,South,8.1,17.3,N/A,Rain,Light Rain,180,2013-01-31 08:55:00
4:15 AM,47.5,44.8,90,29.00,10.0,South,5.8,-,N/A,Rain,Light Rain,190,2013-01-31 09:15:00
4:35 AM,47.3,44.6,90,28.96,5.0,South,3.5,-,N/A,Rain,Heavy Rain,190,2013-01-31 09:35:00
4:55 AM,46.4,44.1,92,28.93,2.5,SSE,4.6,-,N/A,,Heavy Drizzle,160,2013-01-31 09:55:00
5:15 AM,46.4,44.2,92,28.91,3.0,SW,3.5,-,N/A,Rain,Rain,220,2013-01-31 10:15:00
5:35 AM,45.3,43.3,93,28.89,1.0,SSE,3.5,-,N/A,Rain,Light Rain,160,2013-01-31 10:35:00
5:55 AM,46.0,44.1,93,28.89,4.0,South,5.8,-,N/A,Rain,Rain,170,2013-01-31 10:55:00
6:15 AM,46.6,44.6,93,28.88,4.0,SSW,5.8,-,N/A,Rain,Rain,200,2013-01-31 11:15:00
6:35 AM,46.2,44.2,93,28.87,3.0,South,8.1,-,N/A,Rain,Light Rain,190,2013-01-31 11:35:00
6:55 AM,45.7,43.7,93,28.82,7.0,SSE,3.5,-,N/A,Rain,Rain,160,2013-01-31 11:55:00
7:15 AM,45.7,43.7,93,28.79,7.0,South,4.6,-,N/A,,Mostly Cloudy,190,2013-01-31 12:15:00
7:35 AM,45.5,43.5,93,28.80,2.5,SW,6.9,-,N/A,Rain,Light Rain,220,2013-01-31 12:35:00
7:55 AM,45.5,43.5,93,28.81,7.0,WSW,10.4,-,N/A,Rain,Rain,250,2013-01-31 12:55:00
8:15 AM,43.9,41.2,90,28.83,7.0,WSW,12.7,38.0,N/A,Rain,Rain,250,2013-01-31 13:15:00
8:35 AM,43.0,37.4,81,28.86,10.0,WSW,15.0,25.3,N/A,,Drizzle,240,2013-01-31 13:35:00
8:55 AM,41.0,34.7,78,28.89,7.0,WSW,11.5,29.9,N/A,,Drizzle,240,2013-01-31 13:55:00
9:15 AM,39.7,34.0,80,28.93,5.0,WSW,11.5,26.5,N/A,Rain,Rain,250,2013-01-31 14:15:00
9:35 AM,38.1,32.9,81,28.95,5.0,South,8.1,20.7,N/A,,Drizzle,190,2013-01-31 14:35:00
9:55 AM,37.4,32.0,81,28.95,10.0,SW,12.7,17.3,N/A,Rain,Light Rain,220,2013-01-31 14:55:00
10:15 AM,37.0,30.7,78,28.96,10.0,WSW,13.8,26.5,N/A,,Light Drizzle,240,2013-01-31 15:15:00
10:35 AM,36.9,27.7,69,28.97,10.0,WSW,16.1,40.3,N/A,,Overcast,240,2013-01-31 15:35:00
10:55 AM,36.7,26.8,67,28.99,10.0,SW,20.7,35.7,N/A,,Overcast,230,2013-01-31 15:55:00
11:15 AM,36.1,23.7,61,29.01,10.0,WSW,24.2,36.8,N/A,,Scattered Clouds,240,2013-01-31 16:15:00
11:35 AM,35.2,23.0,61,29.02,10.0,WSW,19.6,32.2,N/A,,Mostly Cloudy,250,2013-01-31 16:35:00
11:55 AM,35.6,21.0,55,29.02,10.0,WSW,28.8,46.0,N/A,,Overcast,240,2013-01-31 16:55:00
12:15 PM,35.2,19.2,52,29.04,10.0,SW,25.3,35.7,N/A,,Overcast,220,2013-01-31 17:15:00
12:35 PM,35.4,19.8,53,29.04,10.0,WSW,23.0,31.1,N/A,,Overcast,240,2013-01-31 17:35:00
12:55 PM,34.5,18.0,51,29.05,10.0,WSW,21.9,42.6,N/A,,Overcast,250,2013-01-31 17:55:00
1:15 PM,33.8,19.0,55,29.06,10.0,SW,25.3,31.1,N/A,,Overcast,230,2013-01-31 18:15:00
1:35 PM,34.5,19.4,54,29.08,10.0,SW,23.0,32.2,N/A,Snow,Light Snow,230,2013-01-31 18:35:00
1:55 PM,33.1,17.2,52,29.08,10.0,WSW,24.2,36.8,N/A,,Overcast,240,2013-01-31 18:55:00
2:15 PM,32.4,17.1,53,29.08,10.0,WSW,20.7,42.6,N/A,,Overcast,250,2013-01-31 19:15:00
2:35 PM,32.0,18.1,57,29.09,7.0,WSW,25.3,41.4,N/A,Snow,Light Snow,250,2013-01-31 19:35:00
2:55 PM,32.0,16.5,53,29.12,10.0,WSW,19.6,40.3,N/A,,Mostly Cloudy,240,2013-01-31 19:55:00
3:15 PM,32.0,14.7,49,29.13,10.0,WSW,26.5,42.6,N/A,,Overcast,250,2013-01-31 20:15:00
3:35 PM,31.6,14.4,49,29.15,10.0,SW,21.9,34.5,N/A,,Overcast,230,2013-01-31 20:35:00
3:55 PM,30.9,14.5,51,29.17,10.0,SW,20.7,48.3,N/A,,Overcast,220,2013-01-31 20:55:00
4:15 PM,30.2,13.5,50,29.18,10.0,SW,23.0,29.9,N/A,,Overcast,230,2013-01-31 21:15:00
4:35 PM,30.2,12.2,47,29.19,10.0,SW,26.5,36.8,N/A,,Overcast,230,2013-01-31 21:35:00
4:55 PM,29.1,12.7,50,29.20,10.0,SW,32.2,42.6,N/A,Snow,Light Snow,230,2013-01-31 21:55:00
5:15 PM,28.4,11.8,50,29.20,10.0,WSW,23.0,39.1,N/A,,Overcast,240,2013-01-31 22:15:00
5:35 PM,28.0,10.0,47,29.21,10.0,WSW,23.0,34.5,N/A,,Mostly Cloudy,240,2013-01-31 22:35:00
5:55 PM,27.9,7.5,42,29.23,10.0,WSW,28.8,44.9,N/A,,Mostly Cloudy,250,2013-01-31 22:55:00
6:15 PM,27.9,7.7,43,29.25,10.0,WSW,24.2,36.8,N/A,,Mostly Cloudy,240,2013-01-31 23:15:00
6:35 PM,27.3,6.8,42,29.27,10.0,WSW,20.7,39.1,N/A,,Overcast,240,2013-01-31 23:35:00
6:55 PM,27.0,5.5,40,29.28,10.0,SW,25.3,34.5,N/A,,Overcast,230,2013-01-31 23:55:00
7:15 PM,26.4,7.2,44,29.30,10.0,WSW,26.5,35.7,N/A,,Overcast,240,2013-02-01 00:15:00
7:35 PM,25.5,9.0,50,29.32,10.0,WSW,24.2,36.8,N/A,,Overcast,250,2013-02-01 00:35:00
7:55 PM,23.5,13.1,64,29.33,2.5,WSW,25.3,39.1,N/A,Snow,Light Snow,250,2013-02-01 00:55:00
8:15 PM,22.8,13.3,67,29.36,4.0,WSW,12.7,35.7,N/A,Snow,Light Snow,250,2013-02-01 01:15:00
8:35 PM,20.1,14.4,78,29.37,2.0,WNW,4.6,-,N/A,Snow,Light Snow,290,2013-02-01 01:35:00
8:55 PM,20.3,11.8,70,29.39,7.0,WSW,15.0,27.6,N/A,,Overcast,250,2013-02-01 01:55:00
9:15 PM,18.7,12.2,76,29.40,2.5,WNW,5.8,-,N/A,Snow,Light Snow,290,2013-02-01 02:15:00
9:35 PM,18.0,11.1,75,29.41,5.0,WSW,8.1,-,N/A,Snow,Light Snow,240,2013-02-01 02:35:00
9:55 PM,17.6,9.9,72,29.42,10.0,WNW,4.6,16.1,N/A,,Overcast,290,2013-02-01 02:55:00
10:15 PM,16.5,10.9,79,29.42,4.0,WNW,4.6,-,N/A,Snow,Light Snow,300,2013-02-01 03:15:00
10:35 PM,17.1,9.3,72,29.43,10.0,WSW,11.5,16.1,N/A,,Overcast,250,2013-02-01 03:35:00
10:55 PM,16.7,7.5,67,29.44,10.0,West,10.4,26.5,N/A,,Overcast,260,2013-02-01 03:55:00
11:15 PM,16.3,7.7,69,29.44,4.0,WSW,9.2,20.7,N/A,Snow,Light Snow,250,2013-02-01 04:15:00
11:35 PM,15.8,8.6,73,29.45,2.5,WSW,13.8,18.4,N/A,Snow,Light Snow,250,2013-02-01 04:35:00
11:55 PM,15.8,8.1,72,29.44,4.0,West,13.8,18.4,N/A,Snow,Light Snow,260,2013-02-01 04:55:00